GW1995 Weather Reports


time (UTC)temp
C
wind
direction
speed
KPH
gust
KPH
rain 1hr
cm
rain 24hr
cm
rain mn
cm
humidity
%
barometer
mb
20260504181320 17 228 8.0 14.5 0.00 0.00 0.00 37 998.0
20260504180819 17 291 6.4 12.9 0.00 0.00 0.00 36 997.8
20260504180317 17 281 11.3 17.7 0.00 0.00 0.00 36 998.0
20260504175814 17 326 6.4 16.1 0.00 0.00 0.00 36 997.8
20260504175311 17 270 12.9 17.7 0.00 0.00 0.00 35 997.8
20260504174809 17 291 4.8 11.3 0.00 0.00 0.00 35 997.8
20260504174306 17 192 3.2 8.0 0.00 0.00 0.00 37 997.8
20260504173803 17 232 8.0 17.7 0.00 0.00 0.00 35 997.7
20260504173300 17 291 8.0 12.9 0.00 0.00 0.00 34 997.6
20260504172756 17 259 9.7 22.5 0.00 0.00 0.00 35 997.7
20260504172253 17 317 16.1 20.9 0.00 0.00 0.00 35 997.6
20260504171749 17 245 6.4 11.3 0.00 0.00 0.00 36 997.5
20260504171246 17 217 9.7 12.9 0.00 0.00 0.00 36 997.5
20260504170743 17 252 6.4 14.5 0.00 0.00 0.00 37 997.4
20260504170240 17 263 9.7 11.3 0.00 0.00 0.00 35 997.6
20260504160159 17 240 9.7 14.5 0.00 0.00 0.00 35 997.7
20260504151126 16 310 14.5 22.5 0.00 0.00 0.00 35 997.5
20260504150624 15 285 9.7 12.9 0.00 0.00 0.00 36 997.3
20260504150121 16 271 3.2 12.9 0.00 0.00 0.00 38 997.3
20260504141049 17 252 8.0 12.9 0.00 0.00 0.00 45 996.9
20260504140546 17 238 6.4 17.7 0.00 0.00 0.00 44 996.8
20260504130510 16 276 4.8 14.5 0.00 0.00 0.00 44 996.1
20260504110358 12 222 3.2 11.3 0.00 0.00 0.00 50 995.3
20260504100315 12 210 4.8 11.3 0.00 0.00 0.00 49 996.3
20260504081708 12 194 3.2 11.3 0.00 0.00 0.00 47 997.9
20260504081205 12 208 3.2 8.0 0.00 0.00 0.00 46 998.1
20260504080701 12 206 6.4 9.7 0.00 0.00 0.00 46 998.1
20260504080158 13 204 4.8 12.9 0.00 0.00 0.00 45 998.1
20260504070125 10 205 1.6 3.2 0.00 0.00 0.00 55 999.3
20260504050514 11 212 3.2 3.2 0.00 0.00 0.00 49 1001.5
20260504050011 11 202 3.2 3.2 0.00 0.00 0.00 48 1001.6
20260504045508 11 212 3.2 3.2 0.00 0.00 0.00 48 1001.7
20260504045003 11 209 1.6 3.2 0.00 0.00 0.00 48 1001.8
20260504044501 11 207 3.2 3.2 0.00 0.00 0.00 47 1001.9
20260504043958 11 221 1.6 3.2 0.00 0.00 0.00 49 1001.9
20260504043455 11 221 1.6 1.6 0.00 0.00 0.00 48 1002.0
20260504042952 11 221 1.6 3.2 0.00 0.00 0.00 48 1001.9
20260504042449 11 222 1.6 1.6 0.00 0.00 0.00 48 1002.1
20260504041946 11 222 1.6 1.6 0.00 0.00 0.00 47 1002.5
20260504041442 11 222 1.6 1.6 0.00 0.00 0.00 47 1002.4
20260504040937 12 222 1.6 1.6 0.00 0.00 0.00 49 1002.6
20260504040436 12 222 1.6 1.6 0.00 0.00 0.00 49 1002.7
20260504035931 12 222 1.6 1.6 0.00 0.00 0.00 49 1002.7
20260504035429 12 222 1.6 1.6 0.00 0.00 0.00 49 1002.8
20260504034925 12 222 1.6 1.6 0.00 0.00 0.00 48 1002.9
20260504034423 12 222 1.6 1.6 0.00 0.00 0.00 48 1003.1
20260504033920 12 222 1.6 1.6 0.00 0.00 0.00 46 1002.8
20260504033418 12 223 1.6 1.6 0.00 0.00 0.00 47 1002.9
20260504032914 12 222 1.6 1.6 0.00 0.00 0.00 47 1003.1
20260504032411 12 222 1.6 1.6 0.00 0.00 0.00 46 1003.1
20260504031908 13 223 1.6 1.6 0.00 0.00 0.00 45 1003.4
20260504031405 13 222 1.6 1.6 0.00 0.00 0.00 46 1003.4
20260504030902 13 223 1.6 1.6 0.00 0.00 0.00 47 1003.3
20260504030359 13 223 1.6 1.6 0.00 0.00 0.00 44 1003.3
20260504025854 13 223 1.6 1.6 0.00 0.00 0.00 45 1003.5
20260504025352 13 223 1.6 1.6 0.00 0.00 0.00 46 1003.4
20260504024848 13 223 1.6 1.6 0.00 0.00 0.00 43 1003.3
20260504024345 14 223 1.6 1.6 0.00 0.00 0.00 42 1003.5
20260504023842 14 223 1.6 1.6 0.00 0.00 0.00 42 1003.6
20260504023339 14 223 1.6 1.6 0.00 0.00 0.00 41 1003.6
20260504022834 15 223 1.6 1.6 0.00 0.00 0.00 40 1003.4
20260504022331 15 223 1.6 1.6 0.00 0.00 0.00 41 1003.5
20260504021828 15 223 1.6 1.6 0.00 0.00 0.00 38 1003.5
20260504021325 15 223 1.6 1.6 0.00 0.00 0.00 38 1003.7
20260504020822 15 224 0.0 1.6 0.00 0.00 0.00 38 1003.4
20260504020319 16 223 1.6 1.6 0.00 0.00 0.00 37 1003.5
20260504015815 16 224 1.6 1.6 0.00 0.00 0.00 36 1003.4
20260504015311 16 223 1.6 1.6 0.00 0.00 0.00 35 1003.7
20260504014808 16 223 1.6 3.2 0.00 0.00 0.00 33 1003.8
20260504014304 17 224 0.0 1.6 0.00 0.00 0.00 34 1003.8
20260504013802 17 227 1.6 1.6 0.00 0.00 0.00 33 1003.7
20260504013259 17 226 1.6 1.6 0.00 0.00 0.00 32 1003.8
20260504012755 17 226 1.6 1.6 0.00 0.00 0.00 31 1003.9
20260504012254 18 244 1.6 1.6 0.00 0.00 0.00 30 1003.7
20260504011750 18 245 1.6 3.2 0.00 0.00 0.00 29 1003.9
20260504011247 18 236 0.0 1.6 0.00 0.00 0.00 29 1003.6
20260504010743 18 235 1.6 1.6 0.00 0.00 0.00 28 1003.9
20260504010238 18 263 1.6 3.2 0.00 0.00 0.00 27 1004.0
20260504005736 19 241 1.6 3.2 0.00 0.00 0.00 27 1003.8
20260504005233 19 251 1.6 1.6 0.00 0.00 0.00 27 1004.0
20260504004730 19 226 1.6 3.2 0.00 0.00 0.00 26 1003.9
20260504004227 19 255 1.6 3.2 0.00 0.00 0.00 26 1003.8
20260504003724 20 236 1.6 3.2 0.00 0.00 0.00 25 1003.9
20260504003221 20 251 3.2 3.2 0.00 0.00 0.00 25 1003.9
20260504002717 20 266 1.6 3.2 0.00 0.00 0.00 25 1004.0
20260504002214 20 268 3.2 8.0 0.00 0.00 0.00 25 1004.0
20260504001712 20 220 3.2 4.8 0.00 0.00 0.00 25 1004.1
20260504001209 20 279 4.8 8.0 0.00 0.00 0.00 25 1004.1
20260504000705 20 253 1.6 4.8 0.00 0.00 0.00 24 1003.9
20260504000204 20 238 3.2 8.0 0.00 0.00 0.00 24 1003.9
20260503235701 21 254 3.2 9.7 0.00 0.00 0.00 24 1004.1
20260503235157 21 271 0.0 8.0 0.00 0.00 0.00 23 1004.0
20260503234655 21 274 3.2 11.3 0.00 0.00 0.00 24 1003.9
20260503234153 21 241 1.6 4.8 0.00 0.00 0.00 24 1004.1
20260503233649 21 269 3.2 8.0 0.00 0.00 0.00 23 1004.2
20260503233145 21 251 4.8 9.7 0.00 0.00 0.00 22 1004.1
20260503232642 21 218 4.8 8.0 0.00 0.00 0.00 23 1004.2
20260503232140 21 288 4.8 9.7 0.00 0.00 0.00 24 1004.2
20260503231638 21 244 3.2 8.0 0.00 0.00 0.00 24 1004.2
20260503231134 21 229 4.8 8.0 0.00 0.00 0.00 25 1004.2
20260503230631 21 240 6.4 9.7 0.00 0.00 0.00 24 1004.2
20260503230128 21 297 6.4 9.7 0.00 0.00 0.00 24 1004.3
20260503225626 21 300 1.6 11.3 0.00 0.00 0.00 24 1004.3
20260503225125 21 274 8.0 16.1 0.00 0.00 0.00 25 1004.2
20260503224623 21 244 3.2 4.8 0.00 0.00 0.00 26 1004.2
20260503224121 21 295 4.8 8.0 0.00 0.00 0.00 25 1004.2
20260503223618 21 279 3.2 11.3 0.00 0.00 0.00 26 1004.3
20260503223114 21 285 4.8 8.0 0.00 0.00 0.00 25 1004.5
20260503222612 21 275 6.4 9.7 0.00 0.00 0.00 23 1004.5
20260503222109 21 278 4.8 11.3 0.00 0.00 0.00 25 1004.5
20260503221608 22 274 8.0 11.3 0.00 0.00 0.00 25 1004.3
20260503221105 21 312 4.8 11.3 0.00 0.00 0.00 27 1004.4
20260503220601 22 257 8.0 11.3 0.00 0.00 0.00 26 1004.2
20260503220058 22 223 1.6 8.0 0.00 0.00 0.00 27 1004.3
20260503215555 21 244 4.8 9.7 0.00 0.00 0.00 26 1004.4
20260503215052 21 258 6.4 12.9 0.00 0.00 0.00 26 1004.3
20260503214550 22 286 6.4 11.3 0.00 0.00 0.00 24 1004.3
20260503214046 21 244 6.4 12.9 0.00 0.00 0.00 24 1004.4
20260503213545 22 280 6.4 9.7 0.00 0.00 0.00 24 1004.5
20260503213041 21 258 3.2 4.8 0.00 0.00 0.00 24 1004.4
20260503212539 21 349 4.8 8.0 0.00 0.00 0.00 24 1004.3
20260503212036 21 280 6.4 14.5 0.00 0.00 0.00 23 1004.5
20260503211533 21 254 4.8 8.0 0.00 0.00 0.00 25 1004.5
20260503211028 21 267 3.2 12.9 0.00 0.00 0.00 24 1004.6
20260503210525 21 334 6.4 16.1 0.00 0.00 0.00 23 1004.7
20260503210021 21 279 1.6 4.8 0.00 0.00 0.00 23 1004.4
20260503205518 22 292 6.4 14.5 0.00 0.00 0.00 22 1004.6
20260503205015 21 306 6.4 11.3 0.00 0.00 0.00 23 1004.5
20260503204512 21 245 6.4 11.3 0.00 0.00 0.00 24 1004.7
20260503204008 22 253 6.4 12.9 0.00 0.00 0.00 23 1004.7
20260503203506 22 259 1.6 8.0 0.00 0.00 0.00 23 1004.7
20260503203003 21 251 6.4 11.3 0.00 0.00 0.00 23 1004.9
20260503202500 22 215 6.4 12.9 0.00 0.00 0.00 22 1004.9
20260503201958 22 223 8.0 9.7 0.00 0.00 0.00 24 1004.6
20260503201456 21 289 8.0 22.5 0.00 0.00 0.00 24 1005.0
20260503200953 21 272 6.4 9.7 0.00 0.00 0.00 25 1005.0
20260503200449 21 283 6.4 9.7 0.00 0.00 0.00 24 1005.0
20260503195946 21 275 8.0 20.9 0.00 0.00 0.00 25 1005.2
20260503195443 21 331 8.0 11.3 0.00 0.00 0.00 28 1005.2
20260503194940 21 2 6.4 8.0 0.00 0.00 0.00 28 1005.1
20260503194437 21 272 6.4 12.9 0.00 0.00 0.00 28 1005.3
20260503193932 21 245 3.2 11.3 0.00 0.00 0.00 30 1005.2
20260503193428 21 291 4.8 12.9 0.00 0.00 0.00 29 1005.2
20260503192923 21 345 8.0 16.1 0.00 0.00 0.00 29 1005.0
20260503192420 21 0 9.7 12.9 0.00 0.00 0.00 29 1005.2
20260503191916 21 321 8.0 9.7 0.00 0.00 0.00 29 1005.2
20260503191414 21 224 3.2 16.1 0.00 0.00 0.00 33 1005.3
20260503190910 21 287 8.0 11.3 0.00 0.00 0.00 34 1005.1
20260503190408 21 279 8.0 12.9 0.00 0.00 0.00 34 1005.0
20260503185904 20 227 6.4 12.9 0.00 0.00 0.00 33 1005.0
20260503185401 21 267 8.0 11.3 0.00 0.00 0.00 34 1005.4
20260503184900 21 236 6.4 12.9 0.00 0.00 0.00 33 1005.3
20260503184356 21 288 11.3 14.5 0.00 0.00 0.00 32 1005.4
20260503183852 21 303 4.8 8.0 0.00 0.00 0.00 33 1005.6
20260503183350 20 281 8.0 14.5 0.00 0.00 0.00 34 1005.4
20260503182847 20 18 3.2 11.3 0.00 0.00 0.00 36 1005.3
20260503182346 20 301 8.0 11.3 0.00 0.00 0.00 36 1005.3
20260503181842 20 304 9.7 17.7 0.00 0.00 0.00 36 1005.5